| time (UTC) | temp C | wind direction | speed KPH | gust KPH | rain 1hr cm | rain 24hr cm | rain mn cm | humidity % | barometer mb |
| 20260906193528 | 26 | 130 | 3.2 | 3.2 | 0.00 | 0.00 | 0.00 | 72 | 1010.3 |
| 20260906193023 | 26 | 137 | 6.4 | 9.7 | 0.00 | 0.00 | 0.00 | 73 | 1010.6 |
| 20260906192518 | 27 | 37 | 6.4 | 9.7 | 0.00 | 0.00 | 0.00 | 72 | 1010.4 |
| 20260906192017 | 27 | 97 | 4.8 | 4.8 | 0.00 | 0.00 | 0.00 | 71 | 1010.4 |
| 20260906191512 | 27 | 56 | 4.8 | 4.8 | 0.00 | 0.00 | 0.00 | 71 | 1010.4 |
| 20260906191012 | 27 | 25 | 4.8 | 8.0 | 0.00 | 0.00 | 0.00 | 71 | 1010.5 |
| 20260906190511 | 27 | 94 | 4.8 | 4.8 | 0.00 | 0.00 | 0.00 | 74 | 1010.5 |
| 20260906190007 | 27 | 207 | 9.7 | 14.5 | 0.00 | 0.00 | 0.00 | 74 | 1010.4 |
| 20260906185505 | 27 | 213 | 8.0 | 11.3 | 0.00 | 0.00 | 0.00 | 72 | 1010.7 |
| 20260906185004 | 27 | 24 | 8.0 | 9.7 | 0.00 | 0.00 | 0.00 | 73 | 1010.6 |
| 20260906184500 | 26 | 258 | 4.8 | 8.0 | 0.00 | 0.00 | 0.00 | 75 | 1010.8 |
| 20260906183955 | 26 | 254 | 9.7 | 11.3 | 0.00 | 0.00 | 0.00 | 75 | 1010.7 |
| 20260906183451 | 26 | 254 | 11.3 | 14.5 | 0.00 | 0.00 | 0.00 | 78 | 1010.9 |
| 20260906182946 | 26 | 156 | 8.0 | 9.7 | 0.00 | 0.00 | 0.00 | 77 | 1010.8 |
| 20260906182442 | 26 | 99 | 4.8 | 4.8 | 0.00 | 0.00 | 0.00 | 78 | 1011.0 |
| 20260906181937 | 26 | 79 | 1.6 | 3.2 | 0.00 | 0.00 | 0.00 | 77 | 1011.1 |
| 20260906181433 | 26 | 92 | 4.8 | 4.8 | 0.00 | 0.00 | 0.00 | 77 | 1010.9 |
| 20260906180928 | 27 | 88 | 6.4 | 9.7 | 0.00 | 0.00 | 0.00 | 75 | 1011.1 |
| 20260906180423 | 26 | 79 | 3.2 | 3.2 | 0.00 | 0.00 | 0.00 | 77 | 1010.9 |
| 20260906175920 | 26 | 203 | 11.3 | 11.3 | 0.00 | 0.00 | 0.00 | 77 | 1011.2 |
| 20260906175416 | 26 | 143 | 9.7 | 11.3 | 0.00 | 0.00 | 0.00 | 80 | 1011.0 |
| 20260906174914 | 26 | 50 | 3.2 | 3.2 | 0.00 | 0.00 | 0.00 | 82 | 1010.9 |
| 20260906174414 | 25 | 71 | 3.2 | 3.2 | 0.00 | 0.00 | 0.00 | 82 | 1011.1 |
| 20260906173909 | 26 | 116 | 4.8 | 4.8 | 0.00 | 0.00 | 0.00 | 80 | 1011.3 |
| 20260906173404 | 26 | 102 | 3.2 | 4.8 | 0.00 | 0.00 | 0.00 | 83 | 1011.2 |
| 20260906172904 | 26 | 266 | 8.0 | 9.7 | 0.00 | 0.00 | 0.00 | 82 | 1011.2 |
| 20260906172400 | 25 | 90 | 4.8 | 8.0 | 0.00 | 0.00 | 0.00 | 85 | 1011.3 |
| 20260906171855 | 25 | 289 | 6.4 | 9.7 | 0.00 | 0.00 | 0.00 | 85 | 1011.1 |
| 20260906171349 | 25 | 239 | 4.8 | 11.3 | 0.00 | 0.00 | 0.00 | 85 | 1011.3 |
| 20260906170845 | 25 | 122 | 6.4 | 8.0 | 0.00 | 0.00 | 0.00 | 84 | 1011.4 |
| 20260906170341 | 25 | 114 | 4.8 | 4.8 | 0.00 | 0.00 | 0.00 | 84 | 1011.4 |
| 20260906165837 | 25 | 63 | 3.2 | 3.2 | 0.00 | 0.00 | 0.00 | 86 | 1011.7 |
| 20260906165336 | 25 | 7 | 3.2 | 4.8 | 0.00 | 0.00 | 0.00 | 86 | 1011.8 |
| 20260906164832 | 25 | 177 | 9.7 | 11.3 | 0.00 | 0.00 | 0.00 | 86 | 1011.9 |
| 20260906164331 | 24 | 105 | 4.8 | 8.0 | 0.00 | 0.00 | 0.00 | 87 | 1011.6 |
| 20260906163827 | 25 | 29 | 6.4 | 9.7 | 0.00 | 0.00 | 0.00 | 87 | 1011.8 |
| 20260906163323 | 24 | 83 | 1.6 | 3.2 | 0.00 | 0.00 | 0.00 | 89 | 1011.9 |
| 20260906162820 | 24 | 63 | 4.8 | 9.7 | 0.00 | 0.00 | 0.00 | 89 | 1011.9 |
| 20260906162319 | 24 | 58 | 4.8 | 4.8 | 0.00 | 0.00 | 0.00 | 89 | 1011.7 |
| 20260906161815 | 24 | 79 | 4.8 | 4.8 | 0.00 | 0.00 | 0.00 | 92 | 1012.1 |
| 20260906161314 | 23 | 113 | 4.8 | 4.8 | 0.00 | 0.00 | 0.00 | 93 | 1011.8 |
| 20260906160813 | 23 | 252 | 9.7 | 12.9 | 0.00 | 0.00 | 0.00 | 93 | 1012.0 |
| 20260906160307 | 23 | 150 | 6.4 | 9.7 | 0.00 | 0.00 | 0.00 | 94 | 1012.0 |
| 20260906155805 | 23 | 131 | 6.4 | 8.0 | 0.00 | 0.00 | 0.00 | 94 | 1012.0 |
| 20260906155300 | 23 | 66 | 1.6 | 3.2 | 0.00 | 0.00 | 0.00 | 94 | 1012.1 |
| 20260906154755 | 23 | 115 | 4.8 | 8.0 | 0.00 | 0.00 | 0.00 | 94 | 1012.0 |
| 20260906154250 | 23 | 77 | 1.6 | 1.6 | 0.00 | 0.00 | 0.00 | 95 | 1011.9 |
| 20260906153749 | 23 | 81 | 3.2 | 4.8 | 0.00 | 0.00 | 0.00 | 94 | 1012.0 |
| 20260906153243 | 23 | 96 | 3.2 | 3.2 | 0.00 | 0.00 | 0.00 | 95 | 1011.8 |
| 20260906152738 | 23 | 246 | 6.4 | 9.7 | 0.00 | 0.00 | 0.00 | 94 | 1011.8 |
| 20260906152233 | 23 | 79 | 3.2 | 3.2 | 0.00 | 0.00 | 0.00 | 95 | 1011.9 |
| 20260906151732 | 23 | 76 | 3.2 | 3.2 | 0.00 | 0.00 | 0.00 | 95 | 1011.7 |
| 20260906151228 | 23 | 80 | 0.0 | 1.6 | 0.00 | 0.00 | 0.00 | 95 | 1011.9 |
| 20260906150723 | 22 | 66 | 3.2 | 4.8 | 0.00 | 0.00 | 0.00 | 95 | 1011.9 |
| 20260906150219 | 22 | 76 | 1.6 | 1.6 | 0.00 | 0.00 | 0.00 | 95 | 1011.9 |
| 20260906145718 | 22 | 69 | 1.6 | 1.6 | 0.00 | 0.00 | 0.00 | 95 | 1011.8 |
| 20260906145217 | 22 | 73 | 3.2 | 3.2 | 0.00 | 0.00 | 0.00 | 95 | 1011.8 |
| 20260906144712 | 22 | 59 | 3.2 | 3.2 | 0.00 | 0.00 | 0.00 | 96 | 1011.8 |
| 20260906144207 | 22 | 67 | 1.6 | 3.2 | 0.00 | 0.00 | 0.00 | 96 | 1011.6 |
| 20260906143706 | 22 | 58 | 1.6 | 3.2 | 0.00 | 0.00 | 0.00 | 96 | 1011.7 |
| 20260906143204 | 22 | 108 | 4.8 | 4.8 | 0.00 | 0.00 | 0.00 | 96 | 1011.5 |
| 20260906142658 | 22 | 191 | 4.8 | 9.7 | 0.00 | 0.00 | 0.00 | 96 | 1011.6 |
| 20260906142153 | 22 | 262 | 8.0 | 9.7 | 0.00 | 0.00 | 0.00 | 97 | 1011.4 |
| 20260906141651 | 22 | 87 | 3.2 | 3.2 | 0.00 | 0.00 | 0.00 | 98 | 1011.7 |
| 20260906141147 | 22 | 92 | 3.2 | 4.8 | 0.00 | 0.00 | 0.00 | 97 | 1011.6 |
| 20260906140646 | 22 | 76 | 3.2 | 4.8 | 0.00 | 0.00 | 0.00 | 97 | 1011.8 |
| 20260906140141 | 22 | 97 | 4.8 | 8.0 | 0.00 | 0.00 | 0.00 | 98 | 1011.6 |
| 20260906135638 | 22 | 107 | 3.2 | 3.2 | 0.00 | 0.00 | 0.00 | 98 | 1011.5 |
| 20260906135134 | 21 | 50 | 3.2 | 3.2 | 0.00 | 0.00 | 0.00 | 98 | 1011.7 |
| 20260906134629 | 21 | 76 | 3.2 | 3.2 | 0.00 | 0.00 | 0.00 | 98 | 1011.4 |
| 20260906134124 | 21 | 245 | 11.3 | 12.9 | 0.00 | 0.00 | 0.00 | 98 | 1011.5 |
| 20260906133620 | 21 | 78 | 1.6 | 3.2 | 0.00 | 0.00 | 0.00 | 98 | 1011.7 |
| 20260906133115 | 21 | 226 | 6.4 | 8.0 | 0.00 | 0.00 | 0.00 | 98 | 1011.3 |
| 20260906132610 | 21 | 93 | 3.2 | 3.2 | 0.00 | 0.00 | 0.00 | 99 | 1011.5 |
| 20260906132106 | 21 | 94 | 3.2 | 3.2 | 0.00 | 0.00 | 0.00 | 99 | 1011.5 |
| 20260906131601 | 21 | 137 | 4.8 | 4.8 | 0.00 | 0.00 | 0.00 | 99 | 1011.3 |
| 20260906131056 | 21 | 70 | 0.0 | 1.6 | 0.00 | 0.00 | 0.00 | 99 | 1011.3 |
| 20260906130556 | 21 | 89 | 3.2 | 3.2 | 0.00 | 0.00 | 0.00 | 99 | 1011.2 |
| 20260906130051 | 21 | 122 | 4.8 | 4.8 | 0.00 | 0.00 | 0.00 | 99 | 1011.2 |
| 20260906125549 | 21 | 100 | 3.2 | 3.2 | 0.00 | 0.00 | 0.00 | 99 | 1011.1 |
| 20260906125048 | 21 | 73 | 1.6 | 1.6 | 0.00 | 0.00 | 0.00 | 99 | 1011.2 |
| 20260906124544 | 21 | 88 | 3.2 | 3.2 | 0.00 | 0.00 | 0.00 | 99 | 1011.0 |
| 20260906124039 | 21 | 69 | 3.2 | 3.2 | 0.00 | 0.00 | 0.00 | 99 | 1011.1 |
| 20260906123538 | 21 | 101 | 4.8 | 4.8 | 0.00 | 0.00 | 0.00 | 99 | 1010.9 |
| 20260906123034 | 21 | 75 | 1.6 | 1.6 | 0.00 | 0.00 | 0.00 | 99 | 1011.1 |
| 20260906122533 | 21 | 83 | 1.6 | 1.6 | 0.00 | 0.00 | 0.00 | 99 | 1011.0 |
| 20260906122029 | 21 | 72 | 0.0 | 0.0 | 0.00 | 0.00 | 0.00 | 99 | 1010.9 |
| 20260906121525 | 21 | 59 | 1.6 | 1.6 | 0.00 | 0.00 | 0.00 | 99 | 1010.9 |
| 20260906121021 | 21 | 66 | 0.0 | 0.0 | 0.00 | 0.00 | 0.00 | 99 | 1011.0 |
| 20260906120522 | 21 | 78 | 3.2 | 3.2 | 0.00 | 0.00 | 0.00 | 99 | 1010.8 |
| 20260906120019 | 21 | 76 | 1.6 | 1.6 | 0.00 | 0.00 | 0.00 | 99 | 1010.8 |
| 20260906115514 | 21 | 66 | 1.6 | 3.2 | 0.00 | 0.00 | 0.00 | 99 | 1010.6 |
| 20260906115008 | 21 | 60 | 3.2 | 4.8 | 0.00 | 0.00 | 0.00 | 99 | 1010.6 |
| 20260906114502 | 21 | 64 | 0.0 | 1.6 | 0.00 | 0.00 | 0.00 | 99 | 1010.4 |
| 20260906113958 | 21 | 110 | 1.6 | 3.2 | 0.00 | 0.00 | 0.00 | 99 | 1010.4 |
| 20260906113456 | 21 | 108 | 3.2 | 3.2 | 0.00 | 0.00 | 0.00 | 99 | 1010.6 |
| 20260906112952 | 21 | 86 | 0.0 | 0.0 | 0.00 | 0.00 | 0.00 | 99 | 1010.2 |
| 20260906112447 | 21 | 80 | 1.6 | 1.6 | 0.00 | 0.00 | 0.00 | 99 | 1010.3 |
| 20260906111943 | 21 | 88 | 1.6 | 3.2 | 0.00 | 0.00 | 0.00 | 99 | 1010.1 |
| 20260906111442 | 21 | 67 | 0.0 | 1.6 | 0.00 | 0.00 | 0.00 | 99 | 1010.0 |
| 20260906110938 | 21 | 72 | 0.0 | 0.0 | 0.00 | 0.00 | 0.00 | 99 | 1010.2 |
| 20260906110433 | 21 | 69 | 0.0 | 0.0 | 0.00 | 0.00 | 0.00 | 99 | 1009.9 |
| 20260906105932 | 21 | 82 | 1.6 | 3.2 | 0.00 | 0.00 | 0.00 | 99 | 1009.9 |
| 20260906105428 | 21 | 84 | 3.2 | 3.2 | 0.00 | 0.00 | 0.00 | 99 | 1009.9 |
| 20260906104924 | 21 | 88 | 0.0 | 0.0 | 0.00 | 0.00 | 0.00 | 99 | 1009.8 |
| 20260906104422 | 21 | 70 | 0.0 | 0.0 | 0.00 | 0.00 | 0.00 | 99 | 1009.5 |
| 20260906103922 | 21 | 65 | 0.0 | 0.0 | 0.00 | 0.00 | 0.00 | 99 | 1009.5 |
| 20260906103420 | 21 | 65 | 0.0 | 0.0 | 0.00 | 0.00 | 0.00 | 99 | 1009.4 |
| 20260906102916 | 21 | 70 | 0.0 | 0.0 | 0.00 | 0.00 | 0.00 | 99 | 1009.4 |
| 20260906102415 | 21 | 80 | 0.0 | 0.0 | 0.00 | 0.00 | 0.00 | 99 | 1009.2 |
| 20260906101910 | 21 | 59 | 1.6 | 1.6 | 0.00 | 0.00 | 0.00 | 99 | 1009.3 |
| 20260906101405 | 21 | 56 | 3.2 | 3.2 | 0.00 | 0.00 | 0.00 | 99 | 1009.1 |
| 20260906100901 | 21 | 54 | 4.8 | 4.8 | 0.00 | 0.00 | 0.00 | 99 | 1009.0 |
| 20260906100400 | 21 | 71 | 0.0 | 0.0 | 0.00 | 0.00 | 0.00 | 99 | 1009.0 |
| 20260906095855 | 21 | 142 | 4.8 | 4.8 | 0.00 | 0.00 | 0.00 | 99 | 1009.1 |
| 20260906095350 | 21 | 123 | 4.8 | 4.8 | 0.00 | 0.00 | 0.00 | 99 | 1009.1 |
| 20260906094850 | 21 | 106 | 3.2 | 3.2 | 0.00 | 0.00 | 0.00 | 99 | 1009.1 |
| 20260906094345 | 21 | 96 | 3.2 | 3.2 | 0.00 | 0.00 | 0.00 | 99 | 1009.0 |
| 20260906093841 | 21 | 71 | 0.0 | 0.0 | 0.00 | 0.00 | 0.00 | 99 | 1008.9 |
| 20260906093337 | 21 | 59 | 0.0 | 0.0 | 0.00 | 0.00 | 0.00 | 99 | 1009.0 |
| 20260906092831 | 21 | 64 | 0.0 | 0.0 | 0.00 | 0.00 | 0.00 | 99 | 1009.0 |
| 20260906092331 | 21 | 65 | 0.0 | 0.0 | 0.00 | 0.00 | 0.00 | 99 | 1009.0 |
| 20260906091827 | 21 | 67 | 0.0 | 0.0 | 0.00 | 0.00 | 0.00 | 99 | 1008.9 |
| 20260906091323 | 21 | 70 | 0.0 | 0.0 | 0.00 | 0.00 | 0.00 | 99 | 1009.1 |
| 20260906090820 | 21 | 72 | 0.0 | 0.0 | 0.00 | 0.00 | 0.00 | 99 | 1009.4 |
| 20260906090318 | 21 | 74 | 0.0 | 1.6 | 0.00 | 0.00 | 0.00 | 99 | 1009.1 |
| 20260906085813 | 21 | 83 | 3.2 | 3.2 | 0.00 | 0.00 | 0.00 | 99 | 1009.2 |
| 20260906085311 | 21 | 83 | 3.2 | 3.2 | 0.00 | 0.00 | 0.00 | 99 | 1009.1 |
| 20260906084807 | 21 | 122 | 4.8 | 4.8 | 0.00 | 0.00 | 0.00 | 99 | 1008.8 |
| 20260906084306 | 22 | 83 | 0.0 | 0.0 | 0.00 | 0.00 | 0.00 | 99 | 1008.9 |
| 20260906083801 | 22 | 73 | 0.0 | 0.0 | 0.00 | 0.00 | 0.00 | 99 | 1009.0 |
| 20260906083257 | 22 | 70 | 0.0 | 0.0 | 0.00 | 0.00 | 0.00 | 99 | 1009.1 |
| 20260906082751 | 22 | 77 | 0.0 | 0.0 | 0.00 | 0.00 | 0.00 | 99 | 1009.2 |
| 20260906082246 | 22 | 45 | 3.2 | 3.2 | 0.00 | 0.00 | 0.00 | 99 | 1009.2 |
| 20260906081742 | 22 | 80 | 1.6 | 1.6 | 0.00 | 0.00 | 0.00 | 99 | 1009.3 |
| 20260906081237 | 22 | 79 | 0.0 | 0.0 | 0.00 | 0.00 | 0.00 | 99 | 1009.2 |
| 20260906080734 | 22 | 73 | 0.0 | 0.0 | 0.00 | 0.00 | 0.00 | 99 | 1009.3 |
| 20260906080230 | 22 | 60 | 0.0 | 0.0 | 0.00 | 0.00 | 0.00 | 99 | 1009.1 |
| 20260906075730 | 22 | 67 | 0.0 | 0.0 | 0.00 | 0.00 | 0.00 | 99 | 1009.0 |
| 20260906075230 | 22 | 60 | 0.0 | 0.0 | 0.00 | 0.00 | 0.00 | 99 | 1009.3 |
| 20260906074725 | 22 | 59 | 0.0 | 0.0 | 0.00 | 0.00 | 0.00 | 99 | 1009.2 |
| 20260906074225 | 22 | 62 | 0.0 | 0.0 | 0.00 | 0.00 | 0.00 | 99 | 1009.2 |
| 20260906073724 | 22 | 61 | 0.0 | 0.0 | 0.00 | 0.00 | 0.00 | 99 | 1009.2 |
| 20260906073219 | 22 | 65 | 0.0 | 0.0 | 0.00 | 0.00 | 0.00 | 99 | 1009.0 |
| 20260906072715 | 21 | 67 | 0.0 | 0.0 | 0.00 | 0.00 | 0.00 | 99 | 1009.1 |
| 20260906072211 | 21 | 68 | 0.0 | 0.0 | 0.00 | 0.00 | 0.00 | 99 | 1008.8 |
| 20260906071707 | 21 | 68 | 0.0 | 0.0 | 0.00 | 0.00 | 0.00 | 99 | 1008.8 |
| 20260906071207 | 21 | 68 | 0.0 | 0.0 | 0.00 | 0.00 | 0.00 | 99 | 1008.6 |
| 20260906070703 | 21 | 68 | 0.0 | 0.0 | 0.00 | 0.00 | 0.00 | 99 | 1008.4 |
| 20260906070159 | 22 | 68 | 0.0 | 0.0 | 0.00 | 0.00 | 0.00 | 99 | 1008.5 |
| 20260906065658 | 22 | 70 | 0.0 | 0.0 | 0.00 | 0.00 | 0.00 | 99 | 1008.3 |
| 20260906065154 | 22 | 68 | 0.0 | 0.0 | 0.00 | 0.00 | 0.00 | 99 | 1008.5 |
| 20260906064648 | 22 | 68 | 0.0 | 0.0 | 0.00 | 0.00 | 0.00 | 99 | 1008.8 |
| 20260906064144 | 22 | 65 | 0.0 | 0.0 | 0.00 | 0.00 | 0.00 | 99 | 1008.9 |
| 20260906063639 | 22 | 68 | 0.0 | 0.0 | 0.00 | 0.00 | 0.00 | 99 | 1009.0 |
| 20260906063135 | 22 | 68 | 0.0 | 0.0 | 0.00 | 0.00 | 0.00 | 99 | 1008.8 |
| 20260906062631 | 22 | 68 | 0.0 | 0.0 | 0.00 | 0.00 | 0.00 | 99 | 1009.1 |
| 20260906062129 | 22 | 66 | 0.0 | 0.0 | 0.00 | 0.00 | 0.00 | 99 | 1009.1 |
| 20260906061626 | 22 | 66 | 0.0 | 0.0 | 0.00 | 0.00 | 0.00 | 99 | 1009.3 |
| 20260906061125 | 22 | 73 | 0.0 | 0.0 | 0.00 | 0.00 | 0.00 | 99 | 1009.3 |
| 20260906060622 | 22 | 62 | 0.0 | 0.0 | 0.00 | 0.00 | 0.00 | 99 | 1009.3 |
| 20260906060119 | 22 | 69 | 0.0 | 0.0 | 0.00 | 0.00 | 0.00 | 99 | 1009.1 |
| 20260906055614 | 22 | 67 | 0.0 | 0.0 | 0.00 | 0.00 | 0.00 | 99 | 1009.2 |
| 20260906055109 | 22 | 67 | 0.0 | 0.0 | 0.00 | 0.00 | 0.00 | 99 | 1009.1 |
| 20260906054604 | 22 | 65 | 0.0 | 0.0 | 0.00 | 0.00 | 0.00 | 99 | 1009.0 |
| 20260906054059 | 22 | 64 | 0.0 | 0.0 | 0.00 | 0.00 | 0.00 | 99 | 1008.9 |
| 20260906053556 | 22 | 63 | 0.0 | 0.0 | 0.00 | 0.00 | 0.00 | 99 | 1008.7 |
| 20260906053051 | 22 | 62 | 0.0 | 0.0 | 0.00 | 0.00 | 0.00 | 99 | 1009.0 |
| 20260906052546 | 22 | 65 | 0.0 | 0.0 | 0.00 | 0.00 | 0.00 | 99 | 1009.0 |
| 20260906052044 | 22 | 66 | 0.0 | 0.0 | 0.00 | 0.00 | 0.00 | 99 | 1009.0 |
| 20260906051538 | 22 | 69 | 0.0 | 0.0 | 0.00 | 0.00 | 0.00 | 99 | 1009.1 |
| 20260906051034 | 22 | 68 | 0.0 | 0.0 | 0.00 | 0.00 | 0.00 | 99 | 1009.0 |
| 20260906050529 | 22 | 68 | 0.0 | 0.0 | 0.00 | 0.00 | 0.00 | 99 | 1009.0 |
| 20260906050024 | 22 | 65 | 0.0 | 0.0 | 0.00 | 0.00 | 0.00 | 99 | 1009.1 |
| 20260906045522 | 22 | 65 | 0.0 | 0.0 | 0.00 | 0.00 | 0.00 | 99 | 1008.9 |
| 20260906042913 | 23 | 63 | 0.0 | 0.0 | 0.00 | 0.00 | 0.00 | 99 | 1008.8 |
| 20260906042411 | 23 | 63 | 0.0 | 0.0 | 0.00 | 0.00 | 0.00 | 99 | 1008.8 |
| 20260906041907 | 23 | 69 | 0.0 | 1.6 | 0.00 | 0.00 | 0.00 | 99 | 1008.8 |
| 20260906041403 | 23 | 70 | 1.6 | 1.6 | 0.00 | 0.00 | 0.00 | 99 | 1008.8 |
| 20260906040857 | 23 | 70 | 0.0 | 0.0 | 0.00 | 0.00 | 0.00 | 99 | 1008.4 |
| 20260906040352 | 23 | 68 | 0.0 | 0.0 | 0.00 | 0.00 | 0.00 | 99 | 1008.5 |
| 20260906035847 | 23 | 66 | 0.0 | 0.0 | 0.00 | 0.08 | 0.08 | 99 | 1008.9 |
| 20260906035343 | 23 | 66 | 0.0 | 0.0 | 0.00 | 0.08 | 0.08 | 99 | 1008.9 |
| 20260906034838 | 23 | 66 | 0.0 | 0.0 | 0.00 | 0.08 | 0.08 | 99 | 1008.9 |
| 20260906034333 | 23 | 61 | 0.0 | 0.0 | 0.00 | 0.08 | 0.08 | 99 | 1009.0 |
| 20260906033829 | 23 | 69 | 0.0 | 0.0 | 0.00 | 0.08 | 0.08 | 99 | 1008.8 |
| 20260906033328 | 23 | 69 | 0.0 | 0.0 | 0.00 | 0.08 | 0.08 | 99 | 1008.7 |
| 20260906032824 | 23 | 66 | 0.0 | 0.0 | 0.00 | 0.08 | 0.08 | 99 | 1008.7 |
| 20260906032320 | 23 | 68 | 0.0 | 0.0 | 0.00 | 0.08 | 0.08 | 99 | 1008.7 |
| 20260906031815 | 23 | 68 | 0.0 | 0.0 | 0.00 | 0.08 | 0.08 | 99 | 1008.8 |
| 20260906031311 | 23 | 68 | 0.0 | 0.0 | 0.00 | 0.08 | 0.08 | 99 | 1008.8 |
| 20260906030810 | 23 | 69 | 0.0 | 0.0 | 0.00 | 0.08 | 0.08 | 99 | 1009.1 |
| 20260906030305 | 23 | 69 | 0.0 | 0.0 | 0.00 | 0.08 | 0.08 | 99 | 1008.9 |
| 20260906025805 | 23 | 69 | 0.0 | 0.0 | 0.00 | 0.08 | 0.08 | 99 | 1009.1 |
| 20260906025259 | 23 | 69 | 0.0 | 0.0 | 0.00 | 0.08 | 0.08 | 99 | 1009.2 |
| 20260906024758 | 23 | 70 | 0.0 | 0.0 | 0.00 | 0.08 | 0.08 | 99 | 1009.0 |
| 20260906024257 | 23 | 69 | 0.0 | 0.0 | 0.00 | 0.08 | 0.08 | 99 | 1009.4 |
| 20260906023753 | 23 | 68 | 0.0 | 0.0 | 0.00 | 0.08 | 0.08 | 99 | 1009.2 |
| 20260906023248 | 23 | 67 | 0.0 | 0.0 | 0.00 | 0.08 | 0.08 | 99 | 1009.1 |
| 20260906022744 | 23 | 67 | 0.0 | 0.0 | 0.00 | 0.08 | 0.08 | 99 | 1009.2 |
| 20260906022239 | 23 | 67 | 0.0 | 0.0 | 0.00 | 0.08 | 0.08 | 99 | 1009.3 |
| 20260906021736 | 23 | 68 | 0.0 | 0.0 | 0.00 | 0.08 | 0.08 | 99 | 1009.2 |
| 20260906021234 | 23 | 70 | 0.0 | 0.0 | 0.00 | 0.08 | 0.08 | 99 | 1009.3 |
| 20260906020729 | 23 | 70 | 0.0 | 0.0 | 0.00 | 0.08 | 0.08 | 99 | 1009.2 |
| 20260906020223 | 23 | 70 | 1.6 | 1.6 | 0.00 | 0.08 | 0.08 | 99 | 1009.0 |
| 20260906015245 | 23 | 70 | 0.0 | 0.0 | 0.00 | 0.08 | 0.08 | 99 | 1008.9 |
| 20260906014740 | 23 | 70 | 0.0 | 0.0 | 0.00 | 0.08 | 0.08 | 99 | 1008.9 |
| 20260906014236 | 23 | 70 | 0.0 | 0.0 | 0.00 | 0.08 | 0.08 | 99 | 1008.9 |
| 20260906013732 | 23 | 70 | 0.0 | 0.0 | 0.00 | 0.08 | 0.08 | 98 | 1008.9 |
| 20260906013231 | 23 | 69 | 0.0 | 0.0 | 0.00 | 0.08 | 0.08 | 98 | 1008.9 |
| 20260906012727 | 23 | 69 | 0.0 | 0.0 | 0.00 | 0.08 | 0.08 | 98 | 1008.7 |
| 20260906012221 | 23 | 69 | 0.0 | 0.0 | 0.00 | 0.08 | 0.08 | 98 | 1008.5 |
| 20260906010939 | 23 | 70 | 0.0 | 0.0 | 0.00 | 0.08 | 0.08 | 98 | 1008.4 |
| 20260906010434 | 23 | 70 | 0.0 | 0.0 | 0.00 | 0.08 | 0.08 | 98 | 1008.4 |
| 20260906005930 | 24 | 74 | 1.6 | 1.6 | 0.00 | 0.08 | 0.08 | 98 | 1008.3 |
| 20260906005430 | 23 | 73 | 0.0 | 0.0 | 0.00 | 0.08 | 0.08 | 98 | 1008.3 |
| 20260906004928 | 24 | 73 | 0.0 | 0.0 | 0.00 | 0.08 | 0.08 | 98 | 1008.5 |
| 20260906004422 | 24 | 73 | 0.0 | 0.0 | 0.00 | 0.08 | 0.08 | 98 | 1008.2 |
| 20260906003918 | 24 | 73 | 0.0 | 0.0 | 0.00 | 0.08 | 0.08 | 98 | 1008.4 |
| 20260906003413 | 24 | 72 | 0.0 | 0.0 | 0.00 | 0.08 | 0.08 | 97 | 1008.1 |
| 20260906002909 | 24 | 73 | 0.0 | 0.0 | 0.00 | 0.08 | 0.08 | 97 | 1008.1 |
| 20260906002409 | 25 | 73 | 0.0 | 0.0 | 0.00 | 0.08 | 0.08 | 96 | 1008.1 |
| 20260906001904 | 25 | 72 | 0.0 | 0.0 | 0.00 | 0.08 | 0.08 | 96 | 1008.2 |
| 20260906001400 | 25 | 72 | 0.0 | 0.0 | 0.00 | 0.08 | 0.08 | 96 | 1008.3 |
| 20260906000859 | 25 | 73 | 0.0 | 0.0 | 0.00 | 0.08 | 0.08 | 96 | 1008.3 |
| 20260906000400 | 25 | 73 | 0.0 | 0.0 | 0.00 | 0.08 | 0.08 | 96 | 1008.4 |
| 20260905235855 | 25 | 73 | 0.0 | 0.0 | 0.00 | 0.08 | 0.08 | 95 | 1008.2 |
| 20260905235349 | 25 | 72 | 0.0 | 0.0 | 0.00 | 0.08 | 0.08 | 95 | 1008.3 |
| 20260905234844 | 25 | 72 | 0.0 | 0.0 | 0.00 | 0.08 | 0.08 | 94 | 1008.3 |
| 20260905234340 | 25 | 72 | 0.0 | 0.0 | 0.00 | 0.08 | 0.08 | 94 | 1008.4 |
| 20260905233835 | 26 | 71 | 0.0 | 0.0 | 0.00 | 0.08 | 0.08 | 93 | 1008.7 |
| 20260905233329 | 26 | 71 | 0.0 | 0.0 | 0.00 | 0.08 | 0.08 | 93 | 1008.8 |
| 20260905232829 | 26 | 71 | 0.0 | 0.0 | 0.00 | 0.08 | 0.08 | 92 | 1008.7 |
| 20260905232325 | 26 | 71 | 0.0 | 0.0 | 0.00 | 0.08 | 0.08 | 91 | 1008.6 |
| 20260905231821 | 26 | 71 | 0.0 | 0.0 | 0.00 | 0.08 | 0.08 | 91 | 1008.5 |
| 20260905231315 | 26 | 71 | 0.0 | 0.0 | 0.00 | 0.08 | 0.08 | 90 | 1008.4 |
| 20260905230812 | 26 | 71 | 0.0 | 0.0 | 0.00 | 0.08 | 0.08 | 89 | 1008.4 |
| 20260905230310 | 26 | 71 | 0.0 | 0.0 | 0.00 | 0.08 | 0.08 | 89 | 1008.3 |
| 20260905225809 | 27 | 71 | 0.0 | 0.0 | 0.00 | 0.08 | 0.08 | 89 | 1008.5 |
| 20260905225306 | 27 | 71 | 0.0 | 0.0 | 0.00 | 0.08 | 0.08 | 89 | 1008.5 |
| 20260905224804 | 27 | 71 | 0.0 | 0.0 | 0.00 | 0.08 | 0.08 | 89 | 1008.6 |
| 20260905224300 | 27 | 71 | 0.0 | 0.0 | 0.00 | 0.08 | 0.08 | 88 | 1008.3 |
| 20260905223755 | 27 | 71 | 0.0 | 0.0 | 0.00 | 0.08 | 0.08 | 88 | 1008.3 |
| 20260905223252 | 27 | 70 | 0.0 | 0.0 | 0.00 | 0.08 | 0.08 | 87 | 1008.3 |
| 20260905222747 | 27 | 70 | 0.0 | 0.0 | 0.00 | 0.08 | 0.08 | 87 | 1008.3 |
| 20260905222246 | 27 | 69 | 0.0 | 0.0 | 0.00 | 0.08 | 0.08 | 85 | 1008.4 |
| 20260905221742 | 27 | 69 | 0.0 | 0.0 | 0.00 | 0.08 | 0.08 | 85 | 1008.5 |
| 20260905221239 | 27 | 69 | 0.0 | 0.0 | 0.00 | 0.08 | 0.08 | 85 | 1008.3 |
| 20260905220734 | 27 | 69 | 0.0 | 0.0 | 0.00 | 0.08 | 0.08 | 86 | 1008.3 |
| 20260905220231 | 27 | 70 | 0.0 | 0.0 | 0.00 | 0.08 | 0.08 | 83 | 1008.3 |
| 20260905215730 | 28 | 68 | 1.6 | 1.6 | 0.00 | 0.08 | 0.08 | 82 | 1008.4 |
| 20260905215226 | 28 | 68 | 0.0 | 0.0 | 0.00 | 0.08 | 0.08 | 81 | 1008.3 |
| 20260905214721 | 28 | 40 | 3.2 | 3.2 | 0.00 | 0.08 | 0.08 | 78 | 1008.5 |
| 20260905214217 | 28 | 55 | 1.6 | 3.2 | 0.00 | 0.08 | 0.08 | 79 | 1008.4 |
| 20260905213712 | 28 | 14 | 1.6 | 3.2 | 0.00 | 0.08 | 0.08 | 75 | 1008.4 |
| 20260905213208 | 29 | 60 | 1.6 | 1.6 | 0.00 | 0.08 | 0.08 | 74 | 1008.2 |
| 20260905212703 | 29 | 47 | 4.8 | 4.8 | 0.00 | 0.08 | 0.08 | 75 | 1008.0 |
| 20260905212202 | 29 | 36 | 4.8 | 4.8 | 0.00 | 0.08 | 0.08 | 74 | 1008.3 |
| 20260905211656 | 29 | 78 | 3.2 | 3.2 | 0.00 | 0.08 | 0.08 | 75 | 1008.3 |
| 20260905211152 | 29 | 59 | 1.6 | 3.2 | 0.00 | 0.08 | 0.08 | 74 | 1008.5 |
| 20260905210648 | 29 | 67 | 0.0 | 0.0 | 0.00 | 0.08 | 0.08 | 75 | 1008.3 |
| 20260905210143 | 30 | 102 | 3.2 | 3.2 | 0.00 | 0.08 | 0.08 | 74 | 1008.3 |
| 20260905205642 | 29 | 61 | 3.2 | 3.2 | 0.00 | 0.08 | 0.08 | 74 | 1008.3 |
| 20260905205142 | 28 | 53 | 3.2 | 3.2 | 0.00 | 0.08 | 0.08 | 77 | 1008.1 |
| 20260905204641 | 28 | 100 | 3.2 | 3.2 | 0.00 | 0.08 | 0.08 | 75 | 1008.2 |
| 20260905204136 | 28 | 44 | 4.8 | 4.8 | 0.00 | 0.08 | 0.08 | 80 | 1008.2 |
| 20260905203631 | 28 | 81 | 1.6 | 3.2 | 0.00 | 0.08 | 0.08 | 79 | 1008.2 |
| 20260905203126 | 28 | 82 | 1.6 | 3.2 | 0.00 | 0.08 | 0.08 | 84 | 1008.3 |
| 20260905202622 | 28 | 72 | 0.0 | 1.6 | 0.00 | 0.08 | 0.08 | 84 | 1008.5 |
| 20260905202117 | 27 | 75 | 1.6 | 3.2 | 0.00 | 0.08 | 0.08 | 88 | 1008.1 |
| 20260905201613 | 27 | 79 | 1.6 | 3.2 | 0.00 | 0.08 | 0.08 | 87 | 1008.5 |
| 20260905201112 | 27 | 69 | 0.0 | 0.0 | 0.00 | 0.08 | 0.08 | 84 | 1008.8 |
| 20260905200608 | 27 | 64 | 0.0 | 0.0 | 0.30 | 0.08 | 0.08 | 82 | 1008.7 |
| 20260905195556 | 28 | 40 | 1.6 | 3.2 | 0.00 | 0.03 | 0.03 | 72 | 1008.9 |
| 20260905195051 | 29 | 133 | 8.0 | 9.7 | 0.00 | 0.03 | 0.03 | 70 | 1008.8 |
| 20260905194551 | 29 | 67 | 1.6 | 3.2 | 0.00 | 0.03 | 0.03 | 70 | 1008.9 |
| 20260905194050 | 30 | 97 | 3.2 | 4.8 | 0.00 | 0.03 | 0.03 | 67 | 1008.9 |